Location: ?????
(42.2640°N, 43.4211°E)
Time: 02:56:11
(UTC+00:00)

Cosmos 1953 - Pass Details

Date: 07 August 2020
Orbit: 538 x 558 km, 82.5° (Epoch: 23 September)

Event Time Altitude Azimuth Distance (km) Brightness Sun altitude
Exits shadow 00:24:27 22° 180° (S) 1,242 3.7 -16.6°
Maximum altitude 00:27:00 77° 97° (E) 569 2.4 -16.2°
Drops below altitude 10° 00:31:03 10° 11° (N) 1,841 5.8 -15.7°
Sets 00:33:14 0° 10° (N) 2,743 6.7 -15.3°
